Ubon Ratchathani, Thailand

12:17 PM +07 on November 18, 2017 (GMT +0700)
Ubon Ratchathani

Weather History for VTUU - February, 2012

Change the Weather History Date:

Wednesday, February 22, 2012

  Actual Average Record
Temperature  
Mean Temperature 82 °F -  
Max Temperature 98 °F 95 °F - ()
Min Temperature 67 °F 71 °F - ()
Cooling Degree Days 18    
Growing Degree Days 32 (Base 50)    
Moisture  
Dew Point 61 °F    
Average Humidity 48    
Maximum Humidity 73    
Minimum Humidity 18    
Precipitation  
Precipitation 0.00 in 0.03 in - ()
Sea Level Pressure  
Sea Level Pressure 29.71 in    
Wind  
Wind Speed 2 mph ()    
Max Wind Speed 7 mph    
Max Gust Speed -    
Visibility 5.1 miles    
Events      
T = Trace of Precipitation, MM = Missing Value Source: Averaged Metar Reports

Daily Weather History Graph

Daily Weather History Graph

Search for Another Location

Airport or City:

Trip Planner

Search our weather history database for the weather conditions in past years. The results will help you decide how hot, cold, wet, or windy it might be!

Date:

Astronomy

Feb. 22, 2012 Rise Set
Actual Time 6:22 AM +07 6:06 PM +07
Civil Twilight 6:00 AM +07 6:27 PM +07
Nautical Twilight 5:35 AM +07 6:53 PM +07
Astronomical Twilight 5:10 AM +07 7:18 PM +07
Moon 6:14 AM +07 (2/22) 6:25 PM +07 (2/22)
Length of Visible Light 12h 27m
Length of Day
11h 43m
New Moon, 0% of the Moon is Illuminated
Feb 22
New Moon
Mar 1
First Quarter
Mar 8
Full
Mar 15
Last Quarter
Mar 22
New

Hourly Weather History & Observations

Time (+07) Temp. Heat Index Dew Point Humidity Pressure Visibility Wind Dir Wind Speed Gust Speed Precip Events Conditions
12:00 AM 75.2 °F - 59.0 °F 57% 29.74 in 5.0 mi NE 1.2 mph - N/A   Unknown
1:00 AM 75 °F - 59 °F 47% 29.73 in 5 mi North 2.3 mph - -   Haze
1:00 AM 75.2 °F - 59.0 °F 57% 29.71 in 5.0 mi North 2.3 mph - N/A   Unknown
3:00 AM 73.4 °F - 59.0 °F 61% 29.71 in 5.0 mi Calm Calm - N/A   Unknown
4:00 AM 71.6 °F - 59.0 °F 64% 29.71 in 5.0 mi Calm Calm - N/A   Unknown
5:00 AM 71.6 °F - 59.0 °F 64% 29.74 in 5.0 mi NNW 1.2 mph - N/A   Unknown
6:00 AM 69.8 °F - 60.8 °F 73% 29.77 in 5.0 mi ESE 2.3 mph - N/A   Unknown
7:00 AM 70 °F - 61 °F 65% 29.78 in 4 mi NNE 1.2 mph - -   Mist
7:00 AM 69.8 °F - 60.8 °F 73% 29.77 in 4.3 mi NNE 1.2 mph - N/A   Unknown
8:00 AM 73.4 °F - 60.8 °F 65% 29.77 in 4.3 mi SE 1.2 mph - N/A   Unknown
10:00 AM 87.8 °F 89.4 °F 64.4 °F 46% 29.80 in 5.0 mi ENE 6.9 mph - N/A   Unknown
11:00 AM 91.4 °F 91.4 °F 60.8 °F 36% 29.80 in 5.0 mi ESE 2.3 mph - N/A   Unknown
12:00 PM 95.0 °F 93.7 °F 57.2 °F 28% 29.74 in 5.6 mi NE 2.3 mph - N/A   Unknown
1:00 PM 95 °F - 56 °F 18% 29.73 in 6 mi WSW 3.5 mph - -   Haze
1:00 PM 95.0 °F 93.0 °F 55.4 °F 26% 29.71 in 5.6 mi WSW 3.5 mph - N/A   Unknown
2:00 PM 95.0 °F 93.7 °F 57.2 °F 28% 29.68 in 5.6 mi South 4.6 mph - N/A   Unknown
3:00 PM 96.8 °F 95.8 °F 57.2 °F 27% 29.65 in 5.6 mi NE 3.5 mph - N/A   Scattered Clouds
4:00 PM 95.0 °F 93.7 °F 57.2 °F 28% 29.62 in 5.6 mi ENE 3.5 mph - N/A   Scattered Clouds
5:00 PM 95.0 °F 94.4 °F 59.0 °F 30% 29.62 in 5.6 mi NE 2.3 mph - N/A   Scattered Clouds
6:00 PM 91.4 °F 91.4 °F 60.8 °F 36% 29.65 in 5.0 mi ESE 2.3 mph - N/A   Scattered Clouds
7:00 PM 90 °F - 67 °F 37% 29.66 in 5 mi WSW 2.3 mph - -   Haze
7:00 PM 89.6 °F 91.1 °F 64.4 °F 43% 29.65 in 5.0 mi WSW 2.3 mph - N/A   Scattered Clouds
8:00 PM 87.8 °F 90.4 °F 66.2 °F 49% 29.68 in 4.3 mi SSE 2.3 mph - N/A   Unknown
9:00 PM 84.2 °F 86.6 °F 66.2 °F 55% 29.71 in 5.0 mi ESE 2.3 mph - N/A   Unknown
10:00 PM 84.2 °F 88.4 °F 69.8 °F 62% 29.71 in 5.0 mi NNW 2.3 mph - N/A   Unknown
11:00 PM 80.6 °F 83.9 °F 69.8 °F 70% 29.71 in 5.0 mi NNE 1.2 mph - N/A   Unknown